Lake George, CO

2:57 PM MST on February 25, 2017 (GMT -0700)
Wilkerson Pass

Weather History for K4BM - March, 2014

Change the Weather History Date:

Friday, March 7, 2014

  Actual Average (KAFF) Record (KAFF)
Temperature  
Mean Temperature 22 °F -  
Max Temperature 30 °F 45 °F 64 °F (2006)
Min Temperature 15 °F 22 °F 13 °F (2008)
Degree Days  
Heating Degree Days 42    
Moisture  
Dew Point 17 °F    
Average Humidity 80    
Maximum Humidity 100    
Minimum Humidity 55    
Precipitation  
Precipitation 0.00 in - - ()
Sea Level Pressure  
Sea Level Pressure 29.99 in    
Wind  
Wind Speed 7 mph (South)    
Max Wind Speed 14 mph    
Max Gust Speed 22 mph    
Visibility 5 miles    
Events Snow    
Averages and records for this station are not official NWS values.
T = Trace of Precipitation, MM = Missing Value Source: NWS Daily Summary

Daily Weather History Graph

Daily Weather History Graph

Search for Another Location

Airport or City:

Trip Planner

Search our weather history database for the weather conditions in past years. The results will help you decide how hot, cold, wet, or windy it might be!

Date:

Astronomy

Mar. 07, 2014 Rise Set
Actual Time 6:25 AM MST 6:01 PM MST
Civil Twilight 5:58 AM MST 6:27 PM MST
Nautical Twilight 5:28 AM MST 6:58 PM MST
Astronomical Twilight 4:57 AM MST 7:29 PM MST
Moon 10:23 AM MST (3/7) 12:05 AM MST (3/7)
Length of Visible Light 12h 28m
Length of Day
11h 35m
Waxing Crescent, 42% of the Moon is Illuminated
Mar 7
Waxing Crescent
Mar 8
First Quarter
Mar 16
Full
Mar 23
Last Quarter
Mar 30
New

Hourly Weather History & Observations

Time (MST) Temp. Windchill Dew Point Humidity Pressure Visibility Wind Dir Wind Speed Gust Speed Precip Events Conditions
12:00 AM 26.6 °F 17.5 °F 12.2 °F 55% 30.00 in 10.0 mi SW 9.2 mph 17.3 mph N/A   Clear
12:19 AM 26.6 °F 17.5 °F 12.2 °F 55% 30.00 in 10.0 mi WSW 9.2 mph 19.6 mph N/A   Clear
12:40 AM 26.6 °F 18.2 °F 12.2 °F 55% 30.01 in 10.0 mi West 8.1 mph - N/A   Clear
1:00 AM 24.8 °F 16.9 °F 14.0 °F 64% 30.00 in 10.0 mi WSW 6.9 mph - N/A   Clear
1:20 AM 26.6 °F 17.5 °F 14.0 °F 59% 30.00 in 10.0 mi West 9.2 mph 17.3 mph N/A   Clear
1:40 AM 26.6 °F 16.8 °F 14.0 °F 59% 29.99 in 10.0 mi West 10.4 mph 16.1 mph N/A   Clear
2:00 AM 24.8 °F 14.6 °F 14.0 °F 64% 29.98 in 10.0 mi WNW 10.4 mph 19.6 mph N/A   Clear
2:20 AM 24.8 °F 17.9 °F 15.8 °F 69% 29.97 in 10.0 mi WSW 5.8 mph 16.1 mph N/A   Clear
2:40 AM 26.6 °F 16.8 °F 17.6 °F 69% 29.96 in 10.0 mi WNW 10.4 mph 19.6 mph N/A   Clear
3:00 AM 26.6 °F 16.2 °F 17.6 °F 69% 29.96 in 10.0 mi West 11.5 mph 18.4 mph N/A   Clear
3:19 AM 24.8 °F 14.6 °F 17.6 °F 74% 29.96 in 10.0 mi West 10.4 mph 17.3 mph N/A   Clear
3:40 AM 26.6 °F 19.1 °F 17.6 °F 69% 29.97 in 10.0 mi WNW 6.9 mph - N/A   Clear
4:00 AM 26.6 °F 19.1 °F 17.6 °F 69% 29.97 in 10.0 mi WNW 6.9 mph - N/A   Clear
4:20 AM 26.6 °F 19.1 °F 17.6 °F 69% 29.98 in 10.0 mi NNW 6.9 mph - N/A   Clear
4:40 AM 26.6 °F - 17.6 °F 69% 29.98 in 10.0 mi Calm Calm - N/A   Mostly Cloudy
4:59 AM 26.6 °F - 17.6 °F 69% 29.98 in 10.0 mi North - - N/A   Overcast
5:20 AM 26.6 °F - 17.6 °F 69% 29.98 in 10.0 mi Calm Calm - N/A   Scattered Clouds
5:39 AM 26.6 °F - 17.6 °F 69% 29.98 in 10.0 mi Calm Calm - N/A   Scattered Clouds
6:00 AM 26.6 °F 22.6 °F 17.6 °F 69% 29.98 in 10.0 mi SW 3.5 mph - N/A   Overcast
6:20 AM 26.6 °F - 17.6 °F 69% 29.97 in 10.0 mi Calm Calm - N/A   Overcast
6:40 AM 26.6 °F - 17.6 °F 69% 29.98 in 10.0 mi Calm Calm - N/A   Overcast
7:00 AM 26.6 °F - 17.6 °F 69% 29.97 in 10.0 mi Calm Calm - N/A   Overcast
7:18 AM 26.6 °F 20.0 °F 17.6 °F 69% 29.98 in 10.0 mi South 5.8 mph - N/A   Overcast
7:40 AM 26.6 °F 20.0 °F 17.6 °F 69% 29.98 in 10.0 mi SSW 5.8 mph - N/A   Overcast
8:00 AM 28.4 °F 22.2 °F 17.6 °F 64% 29.97 in 10.0 mi SSW 5.8 mph - N/A   Overcast
8:20 AM 28.4 °F - 19.4 °F 69% 29.97 in 10.0 mi Calm Calm - N/A   Overcast
8:40 AM 28.4 °F 24.6 °F 17.6 °F 64% 29.97 in 10.0 mi SSW 3.5 mph - N/A   Overcast
9:00 AM 30.2 °F 26.7 °F 19.4 °F 64% 29.97 in 10.0 mi SSW 3.5 mph - N/A   Overcast
9:19 AM 30.2 °F 25.4 °F 19.4 °F 64% 29.96 in 10.0 mi SSE 4.6 mph - N/A   Overcast
9:40 AM 26.6 °F 19.1 °F 17.6 °F 69% 29.96 in 7.0 mi South 6.9 mph - N/A   Overcast
10:00 AM 26.6 °F 19.1 °F 21.2 °F 80% 29.95 in 1.5 mi South 6.9 mph - N/A Snow Light Snow
10:20 AM 26.6 °F 19.1 °F 21.2 °F 80% 29.95 in 0.8 mi South 6.9 mph - N/A Snow Light Snow
10:40 AM 26.6 °F 20.0 °F 23.0 °F 86% 29.95 in 1.8 mi SE 5.8 mph - N/A Snow Light Snow
11:00 AM 28.4 °F 21.2 °F 23.0 °F 80% 29.95 in 0.5 mi South 6.9 mph - N/A Snow Light Snow
11:20 AM 26.6 °F 19.1 °F 24.8 °F 93% 29.94 in 0.5 mi South 6.9 mph - N/A Snow Snow
11:40 AM 26.6 °F 20.0 °F 23.0 °F 86% 29.93 in 0.5 mi South 5.8 mph - N/A Snow Light Snow
12:00 PM 26.6 °F 20.0 °F 23.0 °F 86% 29.93 in 1.0 mi South 5.8 mph - N/A Snow Light Snow
12:20 PM 26.6 °F 18.2 °F 23.0 °F 86% 29.92 in 0.5 mi South 8.1 mph - N/A Snow Snow
12:40 PM 26.6 °F 19.1 °F 23.0 °F 86% 29.92 in 1.0 mi SSE 6.9 mph - N/A Snow Light Snow
12:59 PM 24.8 °F 19.1 °F 23.0 °F 93% 29.92 in 0.2 mi ESE 4.6 mph - N/A Snow Snow
1:20 PM 24.8 °F 19.1 °F 23.0 °F 93% 29.92 in 0.2 mi East 4.6 mph - N/A Snow Snow
1:40 PM 23.0 °F 14.7 °F 23.0 °F 100% 29.92 in 0.2 mi NE 6.9 mph - N/A Snow Heavy Snow
2:00 PM 23.0 °F 14.7 °F 21.2 °F 93% 29.93 in 0.2 mi NE 6.9 mph - N/A Snow Heavy Snow
2:20 PM 23.0 °F 12.4 °F 21.2 °F 93% 29.93 in 0.2 mi NE 10.4 mph 20.7 mph N/A Snow Heavy Snow
2:40 PM 21.2 °F - 19.4 °F 93% 29.92 in 0.2 mi North - - N/A Snow Heavy Snow
3:00 PM 21.2 °F 8.9 °F 19.4 °F 93% 29.93 in 0.2 mi ENE 12.7 mph 21.9 mph N/A Snow Heavy Snow
3:20 PM 21.2 °F 10.1 °F 19.4 °F 93% 29.94 in 0.2 mi ENE 10.4 mph 18.4 mph N/A Snow Heavy Snow
3:40 PM 21.2 °F - 17.6 °F 86% 29.95 in 0.2 mi North - - N/A Snow Snow
4:00 PM 19.4 °F 8.6 °F 17.6 °F 93% 29.96 in 0.2 mi ENE 9.2 mph - N/A Snow Snow
4:20 PM 19.4 °F - 17.6 °F 93% 29.97 in 0.2 mi North - - N/A Snow Snow
4:40 PM 19.4 °F - 17.6 °F 93% 29.98 in 0.2 mi North - - N/A Snow Snow
5:00 PM 19.4 °F - 17.6 °F 93% 29.99 in 0.5 mi North - - N/A Snow Snow
5:20 PM 19.4 °F - 17.6 °F 93% 30.00 in 0.5 mi North - - N/A Snow Snow
5:40 PM 17.6 °F - 15.8 °F 93% 30.00 in 0.8 mi North - - N/A Snow Snow
5:59 PM 17.6 °F - 14.0 °F 86% 30.01 in 0.8 mi North - - N/A Snow Snow
6:19 PM 17.6 °F - 14.0 °F 86% 30.02 in 1.0 mi North - - N/A Snow Light Snow
6:40 PM 17.6 °F - 14.0 °F 86% 30.02 in 1.5 mi North - - N/A Snow Light Snow
6:59 PM 17.6 °F 3.7 °F 14.0 °F 86% 30.03 in 1.8 mi NE 13.8 mph - N/A   Overcast
7:20 PM 17.6 °F - 14.0 °F 86% 30.05 in 2.5 mi North - - N/A   Overcast
7:40 PM 15.8 °F - 14.0 °F 93% 30.05 in 4.0 mi North - - N/A   Overcast
8:00 PM 15.8 °F - 14.0 °F 93% 30.05 in 5.0 mi North - - N/A   Overcast
8:20 PM 15.8 °F - 14.0 °F 93% 30.07 in 4.0 mi North - - N/A   Overcast
8:39 PM 15.8 °F 3.4 °F 14.0 °F 93% 30.08 in 5.0 mi ENE 10.4 mph 21.9 mph N/A   Overcast
9:00 PM 15.8 °F 5.1 °F 12.2 °F 86% 30.09 in 5.0 mi NE 8.1 mph - N/A   Overcast
9:19 PM 15.8 °F 3.4 °F 14.0 °F 93% 30.09 in 4.0 mi NE 10.4 mph 19.6 mph N/A   Overcast
9:40 PM 15.8 °F 3.4 °F 14.0 °F 93% 30.10 in 4.0 mi NE 10.4 mph 16.1 mph N/A   Overcast
9:59 PM 15.8 °F 4.2 °F 14.0 °F 93% 30.10 in 3.0 mi NE 9.2 mph 17.3 mph N/A   Overcast
10:20 PM 15.8 °F 6.1 °F 14.0 °F 93% 30.11 in 4.0 mi NE 6.9 mph - N/A   Overcast
10:39 PM 15.8 °F 5.1 °F 14.0 °F 93% 30.12 in 5.0 mi NE 8.1 mph 16.1 mph N/A   Overcast
11:00 PM 15.8 °F 4.2 °F 12.2 °F 86% 30.12 in 4.0 mi NE 9.2 mph - N/A Snow Light Snow
11:20 PM 15.8 °F 7.2 °F 12.2 °F 86% 30.12 in 3.0 mi NE 5.8 mph - N/A Snow Light Snow
11:40 PM 15.8 °F 8.6 °F 12.2 °F 86% 30.12 in 1.8 mi NE 4.6 mph - N/A Snow Light Snow